[[{"header":{"parameterUnit":"m.s-1","parameterCategory":1,"la1":30.2992,"la2":30.254,"lo1":-89.0895,"lo2":-89.0443,"dy":0.0025,"dx":0.0025,"nx":19,"ny":19,"refTime":"2026-05-20T09:00:00:Z","depth":0,"parameterNumber":2,"parameterNumberName":"U-component_of_WINDS"},"data":[0,0,0,-1.2121,-1.2122,-1.2174,-1.2174,-1.2234,-1.2235,0,0,0,0,0,0,0,0,0,0,0,-1.2102,-1.2103,-1.2121,-1.2122,-1.2174,-1.2174,-1.2234,-1.2235,0,0,0,0,0,0,0,0,0,0,0,-1.2102,-1.2102,-1.2103,-1.2122,-1.2174,-1.2174,-1.2234,-1.2197,0,0,0,0,0,0,0,0,0,0,-1.2148,-1.2127,-1.2102,-1.2103,-1.2123,-1.2174,-1.2174,-1.2195,-1.2199,-1.2208,0,-1.2215,0,-1.2226,-1.2238,-1.2238,0,0,0,-1.2125,-1.2124,-1.2141,-1.2103,-1.2123,-1.2174,-1.2151,-1.2198,-1.2202,-1.2213,-1.2216,-1.2218,-1.2227,-1.2239,-1.2239,-1.2281,-1.2281,0,0,-1.2122,-1.211,-1.2138,-1.2144,-1.2135,-1.215,-1.2153,-1.22,-1.2203,-1.2216,-1.222,-1.2228,-1.2239,-1.2239,-1.2281,-1.2281,0,0,0,-1.2112,-1.2108,-1.2124,-1.2141,-1.2151,-1.2151,-1.2155,-1.22,-1.2207,-1.2221,-1.2228,-1.2239,-1.224,-1.2281,-1.2281,-1.2273,0,0,0,-1.211,-1.2102,-1.2122,-1.2115,-1.215,-1.2176,-1.2154,-1.2203,-1.2209,-1.2228,-1.2239,-1.224,-1.2281,-1.2281,-1.2273,-1.2271,0,0,0,-1.21,-1.2101,-1.2107,-1.2114,-1.2136,-1.2176,-1.2185,-1.2205,-1.2214,-1.2238,-1.2241,-1.2281,-1.2281,-1.2273,-1.2271,-1.2278,0,0,0,-1.2085,-1.2099,-1.2107,-1.2124,-1.2136,-1.217,-1.2185,-1.2211,-1.2231,-1.224,-1.2281,-1.2281,-1.2273,-1.2271,-1.2278,-1.2281,-1.2282,0,0,-1.2095,-1.2099,-1.2111,-1.2119,-1.2149,-1.2163,-1.2192,-1.2222,-1.2236,-1.2265,-1.2266,-1.2273,-1.2271,-1.2278,-1.2289,-1.2289,0,0,0,-1.211,-1.2118,-1.2128,-1.2147,-1.217,-1.219,-1.2217,-1.2228,-1.2254,-1.2249,-1.2278,-1.2277,-1.2282,-1.2284,-1.2284,-1.2289,-1.2282,-1.2282,-1.2282,-1.2105,-1.2122,-1.2142,-1.2165,-1.2183,-1.2211,-1.2227,-1.2247,-1.2258,-1.2265,-1.2274,-1.2278,-1.2281,-1.2281,-1.2286,-1.2277,-1.2277,-1.2277,-1.2277,-1.2121,-1.2135,-1.215,-1.2175,-1.2193,-1.2214,-1.2241,-1.2249,-1.2271,-1.2273,-1.2278,-1.2279,-1.2281,-1.2286,-1.2277,-1.2277,-1.2277,-1.2277,-1.2277,-1.212,-1.2129,-1.2143,-1.2172,-1.2192,-1.2215,-1.2235,-1.2251,-1.2265,-1.227,-1.2281,-1.2281,-1.2283,-1.2274,-1.2274,-1.2274,-1.2274,-1.2274,-1.2274,-1.2113,-1.2129,-1.2144,-1.217,-1.2184,-1.2204,-1.2232,-1.2246,-1.2266,-1.2276,-1.2276,-1.2287,-1.2278,-1.2275,-1.2275,-1.2275,-1.2274,-1.2274,-1.2274,-1.2122,-1.2123,-1.2146,-1.216,-1.2192,-1.2211,-1.223,-1.2258,-1.2272,-1.2281,-1.2291,-1.2282,-1.2288,-1.2287,-1.2285,-1.2288,-1.2288,-1.2288,-1.2288,-1.2121,-1.2125,-1.2153,-1.2174,-1.2197,-1.2217,-1.2243,-1.2265,-1.2287,-1.2297,-1.2299,-1.2298,-1.2297,-1.2303,-1.2302,-1.23,-1.2307,-1.2307,-1.2307,-1.2127,-1.2134,-1.2153,-1.2176,-1.2202,-1.2224,-1.2249,-1.2272,-1.2298,-1.2308,-1.2305,-1.2304,-1.2302,-1.23,-1.2309,-1.2308,-1.2305,0,0]},{"header":{"parameterUnit":"m.s-1","parameterCategory":1,"la1":30.2992,"la2":30.254,"lo1":-89.0895,"lo2":-89.0443,"dy":0.0025,"dx":0.0025,"nx":19,"ny":19,"refTime":"2026-05-20T09:00:00:Z","depth":0,"parameterNumber":3,"parameterNumberName":"V-component_of_WINDS"},"data":[0,0,0,1.5628,1.5627,1.5608,1.5608,1.5596,1.5596,0,0,0,0,0,0,0,0,0,0,0,1.5641,1.5642,1.5628,1.5627,1.5608,1.5608,1.5596,1.5596,0,0,0,0,0,0,0,0,0,0,0,1.5641,1.5641,1.5642,1.5627,1.5608,1.5608,1.5596,1.5606,0,0,0,0,0,0,0,0,0,0,1.5622,1.5643,1.5641,1.5642,1.5627,1.5608,1.5608,1.5606,1.5605,1.561,0,1.5617,0,1.5606,1.5596,1.5596,0,0,0,1.5621,1.5644,1.5631,1.5642,1.5627,1.5608,1.5615,1.5605,1.5604,1.5609,1.5617,1.5616,1.5606,1.5596,1.5596,1.5646,1.5647,0,0,1.5622,1.5642,1.5632,1.5631,1.5635,1.5616,1.5614,1.5605,1.5614,1.5617,1.5615,1.5606,1.5596,1.5596,1.5646,1.5647,0,0,0,1.5629,1.5643,1.5631,1.5632,1.5628,1.5615,1.5614,1.5615,1.5609,1.5615,1.5606,1.5596,1.5596,1.5645,1.5646,1.5692,0,0,0,1.563,1.5647,1.5631,1.5643,1.5628,1.5621,1.5624,1.561,1.5608,1.5606,1.5596,1.5596,1.5645,1.5646,1.5689,1.571,0,0,0,1.564,1.5648,1.5648,1.5644,1.5637,1.5621,1.5614,1.5609,1.5602,1.5596,1.5596,1.5644,1.5646,1.5687,1.5706,1.5729,0,0,0,1.5656,1.5689,1.5649,1.5682,1.5637,1.5649,1.5614,1.5622,1.5622,1.5596,1.5645,1.5646,1.5686,1.5704,1.5727,1.5752,1.5765,0,0,1.5708,1.5696,1.5714,1.5678,1.5702,1.5651,1.5681,1.5662,1.5643,1.5646,1.5647,1.569,1.5706,1.5729,1.5828,1.5838,0,0,0,1.5737,1.575,1.5752,1.5753,1.574,1.573,1.5704,1.5697,1.5699,1.5649,1.5704,1.5713,1.5725,1.5737,1.5745,1.5755,1.5652,1.5652,1.5652,1.584,1.5814,1.5842,1.5814,1.5815,1.5788,1.5787,1.5773,1.5746,1.5759,1.576,1.5823,1.5837,1.5844,1.5854,1.5771,1.5772,1.5772,1.5772,1.5914,1.5928,1.5893,1.5907,1.5879,1.589,1.5866,1.5847,1.5853,1.5821,1.583,1.5797,1.5856,1.5863,1.5775,1.5775,1.5774,1.5774,1.5774,1.5978,1.5981,1.5972,1.5971,1.5973,1.5944,1.5952,1.5926,1.5902,1.5912,1.591,1.5909,1.5905,1.5913,1.5913,1.5913,1.5913,1.5913,1.5914,1.6049,1.6037,1.6047,1.6036,1.6034,1.6027,1.6001,1.5997,1.5987,1.5967,1.5967,1.5939,1.5866,1.5848,1.5917,1.5916,1.5916,1.5916,1.5915,1.6134,1.611,1.6126,1.6124,1.6109,1.6113,1.608,1.6076,1.6069,1.6074,1.6044,1.5994,1.5979,1.5972,1.5957,1.6049,1.6049,1.6049,1.6049,1.6188,1.6178,1.6189,1.6187,1.6182,1.6154,1.6172,1.6152,1.6127,1.6122,1.6105,1.6083,1.6077,1.6065,1.6056,1.6042,1.6154,1.6154,1.6154,1.6239,1.6228,1.6248,1.6225,1.6211,1.62,1.6216,1.6215,1.6182,1.6158,1.6117,1.6112,1.6076,1.6066,1.6041,1.6028,1.6001,0,0]}]]